Time,TemperatureF,DewpointF,PressureIn,WindDirection,WindDirectionDegrees,WindSpeedMPH,WindSpeedGustMPH,Humidity,HourlyPrecipIn,Conditions,Clouds,dailyrainin,SolarRadiationWatts/m^2,SoftwareType,DateUTC
2013-01-11 00:22:00,29.0,28.0,-100.00,South,184,1.0,4.0,97,0.00,,,0.00,0.000000,,2013-01-11 09:22:00,
2013-01-11 00:32:00,29.0,28.0,-100.00,South,184,1.0,4.0,97,0.00,,,0.00,0.000000,,2013-01-11 09:32:00,
2013-01-11 00:42:00,29.0,28.0,-100.00,South,184,1.0,4.0,97,0.00,,,0.00,0.000000,,2013-01-11 09:42:00,
2013-01-11 00:52:00,29.0,28.0,-100.00,South,184,1.0,4.0,97,0.00,,,0.00,0.000000,,2013-01-11 09:52:00,
2013-01-11 01:22:00,29.0,29.0,-100.00,SSE,163,2.0,4.0,98,0.00,,,0.00,0.000000,,2013-01-11 10:22:00,
2013-01-11 01:32:00,29.0,29.0,-100.00,SSE,163,2.0,4.0,98,0.00,,,0.00,0.000000,,2013-01-11 10:32:00,
2013-01-11 01:42:00,29.0,29.0,-100.00,SSE,163,2.0,4.0,98,0.00,,,0.00,0.000000,,2013-01-11 10:42:00,
2013-01-11 01:52:00,29.0,29.0,-100.00,SSE,163,2.0,4.0,98,0.00,,,0.00,0.000000,,2013-01-11 10:52:00,
2013-01-11 02:22:00,29.0,29.0,-100.00,NNE,27,0.0,4.0,98,0.00,,,0.00,0.000000,,2013-01-11 11:22:00,
2013-01-11 02:32:00,29.0,29.0,-100.00,NNE,27,0.0,4.0,98,0.00,,,0.00,0.000000,,2013-01-11 11:32:00,
2013-01-11 02:42:00,29.0,29.0,-100.00,NNE,27,0.0,4.0,98,0.00,,,0.00,0.000000,,2013-01-11 11:42:00,
2013-01-11 02:52:00,29.0,29.0,-100.00,NNE,27,0.0,4.0,98,0.00,,,0.00,0.000000,,2013-01-11 11:52:00,
2013-01-11 03:22:00,29.0,29.0,-100.00,SE,140,0.0,2.0,98,0.00,,,-99.99,0.000000,,2013-01-11 12:22:00,
2013-01-11 03:32:00,29.0,29.0,-100.00,SE,140,0.0,2.0,98,0.00,,,-99.99,0.000000,,2013-01-11 12:32:00,
2013-01-11 03:42:00,29.0,29.0,-100.00,SE,140,0.0,2.0,98,0.00,,,-99.99,0.000000,,2013-01-11 12:42:00,
2013-01-11 03:52:00,29.0,29.0,-100.00,SE,140,0.0,2.0,98,0.00,,,-99.99,0.000000,,2013-01-11 12:52:00,
2013-01-11 04:22:00,30.0,29.0,-100.00,SSE,149,2.0,5.0,98,0.00,,,-99.99,0.000000,,2013-01-11 13:22:00,
2013-01-11 04:33:00,30.0,29.0,-100.00,SSE,149,2.0,5.0,98,0.00,,,-99.99,0.000000,,2013-01-11 13:33:00,
2013-01-11 04:42:00,30.0,29.0,-100.00,SSE,149,2.0,5.0,98,0.00,,,-99.99,0.000000,,2013-01-11 13:42:00,
2013-01-11 04:52:00,30.0,29.0,-100.00,SSE,149,2.0,5.0,98,0.00,,,-99.99,0.000000,,2013-01-11 13:52:00,
2013-01-11 05:22:00,30.0,29.0,-100.00,SSE,165,4.0,6.0,98,0.00,,,0.00,0.000000,,2013-01-11 14:22:00,
2013-01-11 05:33:00,30.0,29.0,-100.00,SSE,165,4.0,6.0,98,0.00,,,0.00,0.000000,,2013-01-11 14:33:00,
2013-01-11 05:42:00,30.0,29.0,-100.00,SSE,165,4.0,6.0,98,0.00,,,0.00,0.000000,,2013-01-11 14:42:00,
2013-01-11 05:53:00,30.0,29.0,-100.00,SSE,165,4.0,6.0,98,0.00,,,0.00,0.000000,,2013-01-11 14:53:00,
2013-01-11 06:23:00,30.0,30.0,-100.00,SSE,150,1.0,7.0,99,0.00,,,0.00,0.000000,,2013-01-11 15:23:00,
2013-01-11 06:32:00,30.0,30.0,-100.00,SSE,150,1.0,7.0,99,0.00,,,0.00,0.000000,,2013-01-11 15:32:00,
2013-01-11 06:42:00,30.0,30.0,-100.00,SSE,150,1.0,7.0,99,0.00,,,0.00,0.000000,,2013-01-11 15:42:00,
2013-01-11 06:52:00,30.0,30.0,-100.00,SSE,150,1.0,7.0,99,0.00,,,0.00,0.000000,,2013-01-11 15:52:00,
2013-01-11 07:22:00,30.0,30.0,-100.00,SE,124,1.0,6.0,99,0.00,,,0.00,0.000000,,2013-01-11 16:22:00,
2013-01-11 07:32:00,30.0,30.0,-100.00,SE,124,1.0,6.0,99,0.00,,,0.00,0.000000,,2013-01-11 16:32:00,
2013-01-11 07:42:00,30.0,30.0,-100.00,SE,124,1.0,6.0,99,0.00,,,0.00,0.000000,,2013-01-11 16:42:00,
2013-01-11 07:52:00,30.0,30.0,-100.00,SE,124,1.0,6.0,99,0.00,,,0.00,0.000000,,2013-01-11 16:52:00,
2013-01-11 08:22:00,31.0,31.0,-100.00,SE,132,1.0,5.0,98,0.00,,,0.00,0.000000,,2013-01-11 17:22:00,
2013-01-11 08:33:00,31.0,31.0,-100.00,SE,132,1.0,5.0,98,0.00,,,0.00,0.000000,,2013-01-11 17:33:00,
2013-01-11 08:43:00,31.0,31.0,-100.00,SE,132,1.0,5.0,98,0.00,,,0.00,0.000000,,2013-01-11 17:43:00,
2013-01-11 08:53:00,31.0,31.0,-100.00,SE,132,1.0,5.0,98,0.00,,,0.00,0.000000,,2013-01-11 17:53:00,
2013-01-11 09:23:00,31.0,31.0,-100.00,South,188,2.0,3.0,99,0.00,,,0.00,1.000000,,2013-01-11 18:23:00,
2013-01-11 09:32:00,31.0,31.0,-100.00,South,188,2.0,3.0,99,0.00,,,0.00,1.000000,,2013-01-11 18:32:00,
2013-01-11 09:43:00,31.0,31.0,-100.00,South,188,2.0,3.0,99,0.00,,,0.00,1.000000,,2013-01-11 18:43:00,
2013-01-11 09:53:00,31.0,31.0,-100.00,South,188,2.0,3.0,99,0.00,,,0.00,1.000000,,2013-01-11 18:53:00,
2013-01-11 10:22:00,31.0,31.0,-100.00,SE,140,5.0,9.0,98,0.00,,,0.00,8.000000,,2013-01-11 19:22:00,
2013-01-11 10:32:00,31.0,31.0,-100.00,SE,140,5.0,9.0,98,0.00,,,0.00,8.000000,,2013-01-11 19:32:00,
2013-01-11 10:42:00,31.0,31.0,-100.00,SE,140,5.0,9.0,98,0.00,,,0.00,8.000000,,2013-01-11 19:42:00,
2013-01-11 10:52:00,31.0,31.0,-100.00,SE,140,5.0,9.0,98,0.00,,,0.00,8.000000,,2013-01-11 19:52:00,
2013-01-11 11:22:00,32.0,32.0,-100.00,SE,141,4.0,7.0,98,0.00,,,0.00,17.000000,,2013-01-11 20:22:00,
2013-01-11 11:33:00,32.0,32.0,-100.00,SE,141,4.0,7.0,98,0.00,,,0.00,17.000000,,2013-01-11 20:33:00,
2013-01-11 11:43:00,32.0,32.0,-100.00,SE,141,4.0,7.0,98,0.00,,,0.00,17.000000,,2013-01-11 20:43:00,
2013-01-11 11:52:00,32.0,32.0,-100.00,SE,141,4.0,7.0,98,0.00,,,0.00,17.000000,,2013-01-11 20:52:00,
2013-01-11 12:23:00,32.0,31.0,-100.00,SSE,149,4.0,8.0,97,0.00,,,0.00,22.000000,,2013-01-11 21:23:00,
2013-01-11 12:32:00,32.0,31.0,-100.00,SSE,149,4.0,8.0,97,0.00,,,0.00,22.000000,,2013-01-11 21:32:00,
2013-01-11 12:42:00,32.0,31.0,-100.00,SSE,149,4.0,8.0,97,0.00,,,0.00,22.000000,,2013-01-11 21:42:00,
2013-01-11 12:52:00,32.0,31.0,-100.00,SSE,149,4.0,8.0,97,0.00,,,0.00,22.000000,,2013-01-11 21:52:00,
2013-01-11 13:22:00,33.0,32.0,-100.00,SE,144,4.0,9.0,96,0.00,,,0.00,27.000000,,2013-01-11 22:22:00,
2013-01-11 13:33:00,33.0,32.0,-100.00,SE,144,4.0,9.0,96,0.00,,,0.00,27.000000,,2013-01-11 22:33:00,
2013-01-11 13:42:00,33.0,32.0,-100.00,SE,144,4.0,9.0,96,0.00,,,0.00,27.000000,,2013-01-11 22:42:00,
2013-01-11 13:52:00,33.0,32.0,-100.00,SE,144,4.0,9.0,96,0.00,,,0.00,27.000000,,2013-01-11 22:52:00,
2013-01-11 14:22:00,32.0,31.0,-100.00,SSE,152,4.0,8.0,97,0.00,,,0.00,20.000000,,2013-01-11 23:22:00,
2013-01-11 14:32:00,32.0,31.0,-100.00,SSE,152,4.0,8.0,97,0.00,,,0.00,20.000000,,2013-01-11 23:32:00,
2013-01-11 14:42:00,32.0,31.0,-100.00,SSE,152,4.0,8.0,97,0.00,,,0.00,20.000000,,2013-01-11 23:42:00,
2013-01-11 14:53:00,32.0,31.0,-100.00,SSE,152,4.0,8.0,97,0.00,,,0.00,20.000000,,2013-01-11 23:53:00,
2013-01-11 15:22:00,32.0,31.0,-100.00,SSE,162,3.0,6.0,97,0.00,,,0.00,14.000000,,2013-01-12 00:22:00,
2013-01-11 15:32:00,32.0,31.0,-100.00,SSE,162,3.0,6.0,97,0.00,,,0.00,14.000000,,2013-01-12 00:32:00,
2013-01-11 15:42:00,32.0,31.0,-100.00,SSE,162,3.0,6.0,97,0.00,,,0.00,14.000000,,2013-01-12 00:42:00,
2013-01-11 15:52:00,32.0,31.0,-100.00,SSE,162,3.0,6.0,97,0.00,,,0.00,14.000000,,2013-01-12 00:52:00,
2013-01-11 16:22:00,32.0,31.0,-100.00,SSE,157,4.0,8.0,97,0.00,,,0.00,6.000000,,2013-01-12 01:22:00,
2013-01-11 16:32:00,32.0,31.0,-100.00,SSE,157,4.0,8.0,97,0.00,,,0.00,6.000000,,2013-01-12 01:32:00,
2013-01-11 16:42:00,32.0,31.0,-100.00,SSE,157,4.0,8.0,97,0.00,,,0.00,6.000000,,2013-01-12 01:42:00,
2013-01-11 16:52:00,32.0,31.0,-100.00,SSE,157,4.0,8.0,97,0.00,,,0.00,6.000000,,2013-01-12 01:52:00,
2013-01-11 17:22:00,31.0,30.0,-100.00,South,186,1.0,6.0,97,0.00,,,0.00,0.000000,,2013-01-12 02:22:00,
2013-01-11 17:32:00,31.0,30.0,-100.00,South,186,1.0,6.0,97,0.00,,,0.00,0.000000,,2013-01-12 02:32:00,
2013-01-11 17:42:00,31.0,30.0,-100.00,South,186,1.0,6.0,97,0.00,,,0.00,0.000000,,2013-01-12 02:42:00,
2013-01-11 17:52:00,31.0,30.0,-100.00,South,186,1.0,6.0,97,0.00,,,0.00,0.000000,,2013-01-12 02:52:00,
2013-01-11 18:22:00,32.0,31.0,-100.00,SSW,196,2.0,6.0,96,0.00,,,0.00,0.000000,,2013-01-12 03:22:00,
2013-01-11 18:32:00,32.0,31.0,-100.00,SSW,196,2.0,6.0,96,0.00,,,0.00,0.000000,,2013-01-12 03:32:00,
2013-01-11 18:42:00,32.0,31.0,-100.00,SSW,196,2.0,6.0,96,0.00,,,0.00,0.000000,,2013-01-12 03:42:00,
2013-01-11 18:52:00,32.0,31.0,-100.00,SSW,196,2.0,6.0,96,0.00,,,0.00,0.000000,,2013-01-12 03:52:00,
2013-01-11 19:12:00,31.0,30.0,-100.00,South,189,1.0,5.0,95,0.00,,,0.00,0.000000,,2013-01-12 04:12:00,
2013-01-11 19:22:00,31.0,30.0,-100.00,South,189,1.0,5.0,95,0.00,,,0.00,0.000000,,2013-01-12 04:22:00,
2013-01-11 19:32:00,31.0,30.0,-100.00,South,189,1.0,5.0,95,0.00,,,0.00,0.000000,,2013-01-12 04:32:00,
2013-01-11 19:42:00,31.0,30.0,-100.00,South,189,1.0,5.0,95,0.00,,,0.00,0.000000,,2013-01-12 04:42:00,
2013-01-11 19:52:00,31.0,30.0,-100.00,South,189,1.0,5.0,95,0.00,,,0.00,0.000000,,2013-01-12 04:52:00,
2013-01-11 20:22:00,32.0,30.0,-100.00,South,170,3.0,6.0,94,0.00,,,0.00,0.000000,,2013-01-12 05:22:00,
2013-01-11 20:32:00,32.0,30.0,-100.00,South,170,3.0,6.0,94,0.00,,,0.00,0.000000,,2013-01-12 05:32:00,
2013-01-11 20:42:00,32.0,30.0,-100.00,South,170,3.0,6.0,94,0.00,,,0.00,0.000000,,2013-01-12 05:42:00,
2013-01-11 20:52:00,32.0,30.0,-100.00,South,170,3.0,6.0,94,0.00,,,0.00,0.000000,,2013-01-12 05:52:00,
2013-01-11 21:22:00,31.0,30.0,-100.00,South,189,2.0,4.0,95,0.00,,,0.00,0.000000,,2013-01-12 06:22:00,
2013-01-11 21:32:00,31.0,30.0,-100.00,South,189,2.0,4.0,95,0.00,,,0.00,0.000000,,2013-01-12 06:32:00,
2013-01-11 21:42:00,31.0,30.0,-100.00,South,189,2.0,4.0,95,0.00,,,0.00,0.000000,,2013-01-12 06:42:00,
2013-01-11 21:52:00,31.0,30.0,-100.00,South,189,2.0,4.0,95,0.00,,,0.00,0.000000,,2013-01-12 06:52:00,
2013-01-11 22:22:00,31.0,30.0,-100.00,SSW,208,1.0,3.0,97,0.00,,,0.00,0.000000,,2013-01-12 07:22:00,
2013-01-11 22:32:00,31.0,30.0,-100.00,SSW,208,1.0,3.0,97,0.00,,,0.00,0.000000,,2013-01-12 07:32:00,
2013-01-11 22:42:00,31.0,30.0,-100.00,SSW,208,1.0,3.0,97,0.00,,,0.00,0.000000,,2013-01-12 07:42:00,
2013-01-11 22:52:00,31.0,30.0,-100.00,SSW,208,1.0,3.0,97,0.00,,,0.00,0.000000,,2013-01-12 07:52:00,
2013-01-11 23:22:00,31.0,30.0,-100.00,South,183,1.0,4.0,97,0.00,,,0.00,0.000000,,2013-01-12 08:22:00,
2013-01-11 23:32:00,31.0,30.0,-100.00,South,183,1.0,4.0,97,0.00,,,0.00,0.000000,,2013-01-12 08:32:00,
2013-01-11 23:42:00,31.0,30.0,-100.00,South,183,1.0,4.0,97,0.00,,,0.00,0.000000,,2013-01-12 08:42:00,
2013-01-11 23:52:00,31.0,30.0,-100.00,South,183,1.0,4.0,97,0.00,,,0.00,0.000000,,2013-01-12 08:52:00,